sat.trackr.live / text

‹ back to catalog

STARLINK-30516

NORAD 57984 · 2023-151W

PAYLOAD ACTIVE UNKNOWN

§ Identity

Operator
Country
US
Launch date
2023-09-30
Launch site
AFETR
Launch vehicle
Mass (kg)
RCS (m²)

Purposes: comms

External: N2YO · Heavens-Above · Gunter

§ Orbital elements

Epoch: 2026-09-20T11:25:22.129248Z

Period
94.27 min
Inclination
42.9961°
Eccentricity
0.0001007
Mean motion
15.27570897 rev/d
Perigee alt
482.4 km
Apogee alt
483.8 km
Semi-major
6,861.2 km
B*
-1.5324e-5
RAAN
334.0193°
Arg perigee
145.5582°
Mean anomaly
214.5335°
Rev number
16,534

§ Raw data

STARLINK-305161 57984U 23151W   26263.47595057 -.00000683  00000+0 -15324-4 0  99932 57984  42.9961 334.0193 0001007 145.5582 214.5335 15.27570897165340

JSON: /api/v1/satellites/57984 · /tle

For live sub-satellite position, see the globe view (requires WebGL).

§ Visibility from observer

Set your observer location to see the next 7 days of passes ≥ 10°. The values pass through the URL so the page stays shareable.

No JS? Fill the form by hand. The geolocation button needs JavaScript.